This is the latest recevied weather packets stored in our database for station/object K4IR. If no packets are shown the sender has not sent any weather packets the latest 10 day(s).
| Time | Temp. | Humidity | Pressure | Rain* | Wind** | Luminosity | Snow |
|---|---|---|---|---|---|---|---|
| 1788050921 | 23.89° C | 97% | 1019.7 hPa | 0 mm | - | 0 W/m² | - |
| 1788050322 | 23.89° C | 97% | 1020.2 hPa | 0 mm | - | 0 W/m² | - |
| 1788049719 | 23.89° C | 97% | 1020.3 hPa | 0 mm | - | 0 W/m² | - |
| 1788049116 | 23.89° C | 96% | 1020.5 hPa | 0 mm | - | 0 W/m² | - |
| 1788048517 | 24.44° C | 96% | 1020.9 hPa | 0 mm | - | 0 W/m² | - |
| 1788047912 | 24.44° C | 96% | 1020.9 hPa | 0 mm | - | 0 W/m² | - |
| 1788047307 | 24.44° C | 95% | 1021.2 hPa | 0 mm | - | 0 W/m² | - |
| 1788046707 | 24.44° C | 95% | 1021 hPa | 0 mm | - | 2 W/m² | - |
| 1788046105 | 25° C | 94% | 1021.3 hPa | 0 mm | - | 5 W/m² | - |
| 1788045502 | 25° C | 93% | 1021.1 hPa | 0 mm | - | 9 W/m² | - |
| 1788044898 | 25° C | 91% | 1021.1 hPa | 0 mm | - | 15 W/m² | - |
| 1788044297 | 25° C | 90% | 1020.5 hPa | 0 mm | - | 13 W/m² | - |
| 1788043694 | 25.56° C | 89% | 1020.4 hPa | 0 mm | - | 15 W/m² | - |
| 1788043094 | 25.56° C | 88% | 1020.7 hPa | 0 mm | - | 20 W/m² | - |
| 1788042489 | 26.11° C | 86% | 1020.4 hPa | 0 mm | - | 53 W/m² | - |
| 1788041887 | 26.11° C | 85% | 1020.7 hPa | 0 mm | - | 92 W/m² | - |
| 1788041287 | 26.11° C | 86% | 1020.8 hPa | 0 mm | - | 134 W/m² | - |
| 1788040685 | 26.11° C | 87% | 1020.7 hPa | 0 mm | - | 108 W/m² | - |
| 1788040080 | 26.11° C | 87% | 1020.8 hPa | 0 mm | - | 100 W/m² | - |
| 1788039476 | 26.11° C | 87% | 1020.8 hPa | 0 mm | - | 119 W/m² | - |
| 1788038873 | 26.11° C | 86% | 1021 hPa | 0 mm | - | 126 W/m² | - |
| 1788038273 | 26.11° C | 86% | 1020.9 hPa | 0 mm | - | 138 W/m² | - |
| 1788037669 | 26.11° C | 88% | 1021.1 hPa | 0 mm | - | 144 W/m² | - |
| 1788037068 | 25.56° C | 90% | 1020.8 hPa | 0.51 mm | - | 143 W/m² | - |
| 1788036467 | 25.56° C | 88% | 1020.7 hPa | 0 mm | - | 106 W/m² | - |
* Rain latest hour (hover to see other rain measurements)
** Current wind speed in m/s (hover to see current wind gust speed)